User: anonymous   Login
Location: PSU-Greenbush Astrophysical Observatory
(37.5140°N, 94.9880°W)
Time: 04:10:58
(UTC-05:00)
Language:

CUTE 1.7 + AOD 2 - Orbit

View from above orbital plane
View from above orbital plane
View from above satellite
View from above satellite

Ground track
Ground track

The orbit data is extracted from the following two-line orbital elements,

1 32785U 08021C   20222.84197493 +.00000178 +00000-0 +24770-4 0  9999
2 32785 097.5758 208.5188 0012029 322.2959 037.7415 14.88497753665815
Epoch (UTC): 09 August 2020 20:12:26
Eccentricity: 0.0012029
inclination: 97.5758°
perigee height: 594 km
apogee height: 611 km
right ascension of ascending node: 208.5188°
argument of perigee: 322.2959°
revolutions per day: 14.88497753
mean anomaly at epoch: 37.7415°
orbit number at epoch: 66581

The dashed part of the orbit path shows where the satellite is in the earth's shadow,  

DLR